Regional Weather Roundup
Issued by NWS

Home | Current Version | Previous Version | Text Only | Print | Product List | Glossary Off
Versions: 1 2 3 4 5 6 7 8 9 10 11 12 13 14 15 16 17 18 19 20 21 22 23 24 25 26 27 28 29 30 31 32 33 34 35 36 37 38 39 40 41 42 43 44 45 46 47 48 49 50

000
ASUS43 KIND 131209
RWRIN

WEATHER ROUNDUP FOR INDIANA
NATIONAL WEATHER SERVICE INDIANAPOLIS IN
700 AM EST SAT FEB 13 2016

NOTE: "FAIR" INDICATES FEW OR NO CLOUDS BELOW 12,000 FEET WITH NO
SIGNIFICANT WEATHER AND/OR OBSTRUCTIONS TO VISIBILITY.

* - STATION DOES NOT REPORT WEATHER SUCH AS PRECIPITATION OR FOG.

+ - STATION NOT QUALITY CONTROLLED BY THE NATIONAL WEATHER SERVICE.
    USE DATA WITH CAUTION...ESPECIALLY DEWPOINT AND RELATIVE
    HUMIDITY OBSERVATIONS.

INZ001>003-010>013-019-020-131300-
NORTHWEST INDIANA

CITY           SKY/WX    TMP DP  RH WIND       PRES   REMARKS
GARY /AIRPORT/ CLEAR      7 -11  43 W9G21     30.56R WCI  -7
KNOX *+        CLOUDY     7   1  78 W17       30.50R WCI -12
LA PORTE +     LGT SNOW  11   5  76 NW10      30.49R WCI  -2
6HR MIN TEMP:  11; 6HR MAX TEMP:  15;

MICHIGAN CITY+ FLURRIES  12   1  62 NW10G21   30.50S WCI  -1
MONTICELLO +   PTCLDY     5  -8  53 NW10      30.52R WCI -10
6HR MIN TEMP:   5; 6HR MAX TEMP:  11;

RENSSELAER +   PTCLDY     5 -13  43 NW10G17   30.54S WCI -10
VALPARAISO     CLOUDY     5  -6  60 W13       30.51R WCI -12
6HR MIN TEMP:   5; 6HR MAX TEMP:  13; 6HR PCP: TRACE;


$$

LMZ046-743>745-131300-
SOUTHERN LAKE MICHIGAN

STATION/POSITION TIME  TEMP    WIND        PRES    WAVE
                       AIR SEA DIR/SP/G            HT
                 (UTC) (F)     (DEG/KT/KT) (MB)    (FT)
BURNS HARBOR     1107    9     300/ 18/ 22 1033.5R
MICHIGAN CITY    1100   12     310/ 24/ 26   N/A

$$

INZ004-005-014>016-021>024-131300-
NORTH CENTRAL INDIANA

CITY           SKY/WX    TMP DP  RH WIND       PRES   REMARKS
GOSHEN         CLOUDY     2  -1  88 SW6       30.45R WCI  -9
6HR MIN TEMP:   1; 6HR MAX TEMP:  11; 6HR PCP: TRACE;

LOGANSPORT +   PTCLDY     7  -6  56 NW9       30.51R WCI  -7
PERU/GRISSOM   PTCLDY     6  -2  68 NW15      30.47R WCI -11
6HR MIN TEMP:   6; 6HR MAX TEMP:  12;

ROCHESTER +    LGT SNOW  10   1  67 W10       30.48R WCI  -3
SOUTH BEND     SNOW       9   6  88 NW8       30.46R VSB 1/2 WCI  -3
6HR MIN TEMP:   6; 6HR MAX TEMP:  11; 6HR PCP:  0.04;

WARSAW +       CLOUDY     5   1  85 W5        30.46R WCI  -4

$$

INZ006>009-017-018-025>027-131300-
NORTHEAST INDIANA

CITY           SKY/WX    TMP DP  RH WIND       PRES   REMARKS
ANGOLA *+      MOCLDY     1  -6  71 W6        30.39R WCI -10
AUBURN +       PTCLDY     3  -6  66 W5        30.44S WCI  -6
FORT WAYNE     PTCLDY     0  -7  72 W5        30.46R WCI -10
6HR MIN TEMP:   0; 6HR MAX TEMP:  13; 6HR PCP: TRACE;

HUNTINGTON +   PTCLDY     3  -9  58 W5        30.47R WCI  -7
6HR MIN TEMP:   1; 6HR MAX TEMP:  12;


$$

INZ028-029-035-036-043>045-051>053-131300-
WEST CENTRAL INDIANA

CITY           SKY/WX    TMP DP  RH WIND       PRES   REMARKS
CRAWFORDSVL +  CLOUDY     4  -8  56 NW8       30.53R WCI -10
6HR MIN TEMP:   4; 6HR MAX TEMP:  12;

GREENCASTLE +  CLEAR      9  -9  43 NW6       30.53R WCI  -1
LAFAYETTE      CLEAR      5  -7  57 NW13G22   30.54R WCI -12
6HR MIN TEMP:   5; 6HR MAX TEMP:  12;

TERRE HAUTE    CLEAR      8  -5  55 NW10      30.57R WCI  -6
6HR MIN TEMP:   8; 6HR MAX TEMP:  16;


$$

INZ030>032-037>040-046>048-054>057-064-065-131300-
CENTRAL INDIANA

CITY           SKY/WX    TMP DP  RH WIND       PRES   REMARKS
COLUMBUS       CLEAR     10   0  61 NW10      30.52  WCI  -3
FISHERS *+     CLEAR      7   0  72 NW6       30.50R WCI  -3
FRANKFORT +    CLEAR      7 -10  46 NW9       30.51S WCI  -7
6HR MIN TEMP:   7; 6HR MAX TEMP:  13;

GREENWOOD *+   CLEAR     10   1  67 NW9       30.50R WCI  -2
INDIANAPOLIS   PTCLDY     7  -3  64 NW10      30.50R WCI  -8
6HR MIN TEMP:   7; 6HR MAX TEMP:  15;

-EAGLE CREEK   PTCLDY     8  -3  61 NW12      30.50R WCI  -7
6HR MIN TEMP:   8; 6HR MAX TEMP:  15;

KOKOMO *+      CLEAR      7  -4  61 NW13      30.49R WCI  -9
6HR MIN TEMP:   7; 6HR MAX TEMP:  12;

MARION +       LGT SNOW   5  -4  65 CALM      30.49R
MT COMFORT *+  CLEAR      7   0  72 NW10      30.49R WCI  -8
SHELBYVILLE    PTCLDY     9  -1  64 NW12      30.49R WCI  -6
6HR MIN TEMP:   9; 6HR MAX TEMP:  18; 6HR PCP: TRACE;

ZIONSVILLE +   CLEAR      6  -3  68 NW10      30.49R WCI  -9
6HR MIN TEMP:   6; 6HR MAX TEMP:  13;


$$

INZ033-034-041-042-049-050-058-059-131300-
EAST CENTRAL INDIANA

CITY           SKY/WX    TMP DP  RH WIND       PRES   REMARKS
MUNCIE         CLOUDY     6  -1  73 NW6       30.47R WCI  -4
6HR MIN TEMP:   6; 6HR MAX TEMP:  14; 6HR PCP: TRACE;


$$

INZ060-061-067>069-081>083-085>088-131300-
SOUTHWEST INDIANA

CITY           SKY/WX    TMP DP  RH WIND       PRES   REMARKS
EVANSVILLE     CLEAR     16   3  56 N10       30.60R WCI   4
6HR MIN TEMP:  16; 6HR MAX TEMP:  23;

HUNTINGBURG *+ CLEAR     14   1  57 N10       30.56R WCI   1
6HR MIN TEMP:  14; 6HR MAX TEMP:  19;

WASHINGTON +   CLEAR     12   3  66 N7        30.57R WCI   1
6HR MIN TEMP:  12; 6HR MAX TEMP:  18;


$$

INZ062-063-066-070>080-084-089>092-131300-
SOUTH CENTRAL AND SOUTHEAST INDIANA

CITY           SKY/WX    TMP DP  RH WIND       PRES   REMARKS
BEDFORD +      CLEAR     10   0  61 NW3       30.53R
BLOOMINGTON    CLEAR      9  -5  53 NW3       30.51R
6HR MIN TEMP:   9; 6HR MAX TEMP:  17;

MADISON *+     CLEAR     14   0  52 NW7       30.51R WCI   4
NORTH VERNON + PTCLDY    12   1  62 NW9       30.50R WCI   0
SEYMOUR +      CLEAR     14   0  52 NW8       30.52R WCI   3

$$




USA.gov is the U.S. government's official web portal to all federal, state and local government web resources and services.